Location: Baia Mare
(47.6567°N, 23.5850°E)
Time: 13:30:39
(UTC+02:00)

ISS - Pass Details

Date: 12 December 2018
Orbit: 401 x 408 km, 51.6° (Epoch: 16 December)

Event Time Altitude Azimuth Distance (km) Brightness Sun altitude
Rises 18:22:04 0° 288° (WNW) 2,318 1.0 -17.3°
Reaches altitude 10° 18:24:28 10° 271° (W) 1,455 0.1 -17.7°
Maximum altitude 18:26:59 21° 221° (SW) 976 -1.2 -18.1°
Drops below altitude 10° 18:29:29 10° 170° (S) 1,446 -1.0 -18.5°
Enters shadow 18:30:45 - 159° (SSE) 1,883 -0.5 -18.7°
